AVA9480 SKBO-SKBG

Flight info

Callsign AVA9480
Flight time 0h 29m
Altitude 23000
Route OSUSU4R KOVBU A567 OPROG OPROG1B
Aircraft A320/M-SDE3FGHIRWY/LB1

Departure

Time 2026-04-25 01:35
Airport El Dorado International Airport (SKBO)

Arrival

Time 2026-04-25 02:04
Airport Palonegro Airport (SKBG)
Time Latitude Longitude Altitude Speed Heading
2026-04-25 00:47 4.69903 -74.14507 8373 ft 0 kts 212°
2026-04-25 01:24 4.69916 -74.14499 8371 ft 2 kts 213°
2026-04-25 01:24 4.69928 -74.14489 8373 ft 2 kts 224°
2026-04-25 01:25 4.69938 -74.14477 8373 ft 2 kts 237°
2026-04-25 01:25 4.69947 -74.14464 8373 ft 2 kts 259°
2026-04-25 01:25 4.69946 -74.14449 8373 ft 2 kts 302°
2026-04-25 01:28 4.69968 -74.14484 8372 ft 5 kts 303°
2026-04-25 01:28 4.69976 -74.14496 8371 ft 3 kts 303°
2026-04-25 01:28 4.69980 -74.14503 8372 ft 0 kts 303°
2026-04-25 01:28 4.69981 -74.14503 8372 ft 0 kts 303°
2026-04-25 01:29 4.69984 -74.14509 8373 ft 0 kts 303°
2026-04-25 01:29 4.69986 -74.14512 8371 ft 0 kts 303°
2026-04-25 01:30 4.69989 -74.14515 8371 ft 3 kts 307°
2026-04-25 01:30 4.70027 -74.14557 8373 ft 12 kts 324°
2026-04-25 01:30 4.70121 -74.14539 8373 ft 15 kts 32°
2026-04-25 01:31 4.70208 -74.14482 8373 ft 15 kts 35°
2026-04-25 01:31 4.70292 -74.14415 8372 ft 16 kts 38°
2026-04-25 01:31 4.70384 -74.14348 8373 ft 16 kts 22°
2026-04-25 01:31 4.70471 -74.14399 8373 ft 16 kts 309°
2026-04-25 01:32 4.70544 -74.14484 8373 ft 17 kts 311°
2026-04-25 01:32 4.70616 -74.14574 8373 ft 17 kts 306°
2026-04-25 01:32 4.70687 -74.14674 8372 ft 18 kts 306°
2026-04-25 01:32 4.70763 -74.14777 8373 ft 19 kts 306°
2026-04-25 01:33 4.70845 -74.14883 8371 ft 19 kts 308°
2026-04-25 01:33 4.70928 -74.14994 8373 ft 20 kts 306°
2026-04-25 01:33 4.71013 -74.15105 8373 ft 20 kts 307°
2026-04-25 01:33 4.71098 -74.15221 8371 ft 21 kts 306°
2026-04-25 01:34 4.71203 -74.15306 8371 ft 20 kts 355°
2026-04-25 01:34 4.71310 -74.15201 8372 ft 27 kts 83°
2026-04-25 01:34 4.71150 -74.14961 8369 ft 71 kts 126°
2026-04-25 01:34 4.70716 -74.14386 8372 ft 133 kts 127°
2026-04-25 01:35 4.70046 -74.13500 8375 ft 183 kts 127°
2026-04-25 01:35 4.69247 -74.12468 8996 ft 188 kts 128°
2026-04-25 01:35 4.68675 -74.11303 9769 ft 189 kts 97°
2026-04-25 01:35 4.68955 -74.10044 10279 ft 190 kts 51°
2026-04-25 01:36 4.70001 -74.09288 10781 ft 188 kts 17°
2026-04-25 01:36 4.71260 -74.08900 11289 ft 188 kts 16°
2026-04-25 01:36 4.72524 -74.08502 11650 ft 198 kts 17°
2026-04-25 01:36 4.73911 -74.08058 11800 ft 220 kts 17°
2026-04-25 01:37 4.75439 -74.07563 11957 ft 241 kts 17°
2026-04-25 01:37 4.77074 -74.07027 12351 ft 251 kts 17°
2026-04-25 01:37 4.78735 -74.06479 13089 ft 253 kts 17°
2026-04-25 01:37 4.80473 -74.05900 13400 ft 274 kts 17°
2026-04-25 01:38 4.82359 -74.05266 13640 ft 298 kts 18°
2026-04-25 01:38 4.84400 -74.04577 13833 ft 321 kts 18°
2026-04-25 01:38 4.86594 -74.03836 14001 ft 344 kts 18°
2026-04-25 01:38 4.88925 -74.03047 14276 ft 360 kts 18°
2026-04-25 01:39 4.91323 -74.02231 14807 ft 366 kts 18°
2026-04-25 01:39 4.93749 -74.01405 15412 ft 370 kts 18°
2026-04-25 01:39 4.96197 -74.00573 16019 ft 374 kts 18°
2026-04-25 01:39 4.98672 -73.99732 16610 ft 377 kts 18°
2026-04-25 01:40 5.01165 -73.98884 17218 ft 380 kts 18°
2026-04-25 01:40 5.03696 -73.98094 17802 ft 383 kts 15°
2026-04-25 01:40 5.06285 -73.97405 18371 ft 386 kts 13°
2026-04-25 01:40 5.08908 -73.96777 18888 ft 389 kts 12°
2026-04-25 01:41 5.11559 -73.96165 19372 ft 392 kts 12°
2026-04-25 01:41 5.14232 -73.95545 19840 ft 395 kts 12°
2026-04-25 01:41 5.16920 -73.94905 20323 ft 399 kts 12°
2026-04-25 01:41 5.19627 -73.94246 20791 ft 402 kts 12°
2026-04-25 01:42 5.22346 -73.93568 21236 ft 405 kts 14°
2026-04-25 01:42 5.24955 -73.92574 21683 ft 409 kts 22°
2026-04-25 01:42 5.27573 -73.91436 22132 ft 412 kts 22°
2026-04-25 01:42 5.30209 -73.90287 22579 ft 415 kts 22°
2026-04-25 01:43 5.32865 -73.89128 23022 ft 417 kts 22°
2026-04-25 01:43 5.35535 -73.87963 23246 ft 419 kts 22°
2026-04-25 01:43 5.38217 -73.86794 23293 ft 421 kts 22°
2026-04-25 01:43 5.40903 -73.85624 23291 ft 421 kts 22°
2026-04-25 01:44 5.43587 -73.84454 23272 ft 421 kts 23°
2026-04-25 01:44 5.46274 -73.83279 23270 ft 420 kts 22°
2026-04-25 01:44 5.48957 -73.82107 23276 ft 420 kts 23°
2026-04-25 01:44 5.51636 -73.80937 23272 ft 421 kts 23°
2026-04-25 01:45 5.54326 -73.79761 23270 ft 421 kts 23°
2026-04-25 01:45 5.57015 -73.78587 23268 ft 421 kts 23°
2026-04-25 01:45 5.59704 -73.77411 23269 ft 421 kts 23°
2026-04-25 01:45 5.62393 -73.76236 23268 ft 421 kts 23°
2026-04-25 01:46 5.65077 -73.75062 23267 ft 421 kts 23°
2026-04-25 01:46 5.67766 -73.73887 23267 ft 421 kts 23°
2026-04-25 01:46 5.70454 -73.72715 23239 ft 421 kts 23°
2026-04-25 01:46 5.73141 -73.71543 23238 ft 421 kts 23°
2026-04-25 01:47 5.75828 -73.70370 23240 ft 421 kts 23°
2026-04-25 01:47 5.78514 -73.69200 23239 ft 421 kts 23°
2026-04-25 01:47 5.81201 -73.68026 23239 ft 421 kts 23°
2026-04-25 01:47 5.83889 -73.66851 23238 ft 421 kts 23°
2026-04-25 01:48 5.86537 -73.65691 23207 ft 421 kts 22°
2026-04-25 01:48 5.89225 -73.64512 23223 ft 421 kts 23°
2026-04-25 01:48 5.91905 -73.63339 23223 ft 421 kts 23°
2026-04-25 01:48 5.94590 -73.62166 23222 ft 421 kts 23°
2026-04-25 01:49 5.97251 -73.60940 23218 ft 421 kts 28°
2026-04-25 01:49 5.99802 -73.59500 23181 ft 421 kts 29°
2026-04-25 01:49 6.02351 -73.58053 23181 ft 421 kts 29°
2026-04-25 01:49 6.04898 -73.56607 23183 ft 421 kts 29°
2026-04-25 01:50 6.07449 -73.55160 23183 ft 421 kts 29°
2026-04-25 01:50 6.10000 -73.53714 23184 ft 421 kts 29°
2026-04-25 01:50 6.12550 -73.52267 23184 ft 421 kts 29°
2026-04-25 01:50 6.15102 -73.50821 23162 ft 421 kts 29°
2026-04-25 01:51 6.17655 -73.49378 23160 ft 421 kts 29°
2026-04-25 01:51 6.20207 -73.47934 23165 ft 420 kts 29°
2026-04-25 01:51 6.22753 -73.46491 23166 ft 420 kts 29°
2026-04-25 01:51 6.25301 -73.45045 23167 ft 420 kts 29°
2026-04-25 01:52 6.27846 -73.43599 23142 ft 420 kts 29°
2026-04-25 01:52 6.30387 -73.42155 23142 ft 420 kts 29°
2026-04-25 01:52 6.32903 -73.40725 22958 ft 411 kts 29°
2026-04-25 01:52 6.35372 -73.39319 22458 ft 405 kts 29°
2026-04-25 01:53 6.37814 -73.37931 21941 ft 401 kts 28°
2026-04-25 01:53 6.40233 -73.36559 21441 ft 397 kts 28°
2026-04-25 01:53 6.42629 -73.35201 20925 ft 394 kts 28°
2026-04-25 01:53 6.44977 -73.33871 20438 ft 391 kts 28°
2026-04-25 01:54 6.47336 -73.32536 19970 ft 388 kts 28°
2026-04-25 01:54 6.49680 -73.31206 19467 ft 385 kts 28°
2026-04-25 01:54 6.52046 -73.29862 18628 ft 394 kts 28°
2026-04-25 01:54 6.54441 -73.28500 17973 ft 395 kts 28°
2026-04-25 01:55 6.56829 -73.27140 17369 ft 393 kts 28°
2026-04-25 01:55 6.59202 -73.25789 16739 ft 387 kts 28°
2026-04-25 01:55 6.61530 -73.24465 15782 ft 382 kts 28°
2026-04-25 01:55 6.63835 -73.23156 14870 ft 378 kts 28°
2026-04-25 01:56 6.66080 -73.21880 14016 ft 373 kts 29°
2026-04-25 01:56 6.68350 -73.20589 13039 ft 368 kts 29°
2026-04-25 01:56 6.70538 -73.19346 12072 ft 362 kts 29°
2026-04-25 01:56 6.72719 -73.18108 11145 ft 357 kts 29°
2026-04-25 01:57 6.76977 -73.15690 9292 ft 346 kts 29°
2026-04-25 01:57 6.79032 -73.14520 8792 ft 328 kts 29°
2026-04-25 01:57 6.80941 -73.13432 8627 ft 302 kts 29°
2026-04-25 01:58 6.82696 -73.12431 8550 ft 277 kts 29°
2026-04-25 01:58 6.84292 -73.11521 8552 ft 251 kts 29°
2026-04-25 01:58 6.85745 -73.10691 8516 ft 231 kts 29°
2026-04-25 01:58 6.87130 -73.09969 8304 ft 220 kts 19°
2026-04-25 01:59 6.88604 -73.09681 8015 ft 213 kts
2026-04-25 01:59 6.90024 -73.09862 7891 ft 200 kts 343°
2026-04-25 01:59 6.91287 -73.10344 7767 ft 190 kts 338°
2026-04-25 01:59 6.92491 -73.10820 7608 ft 183 kts 338°
2026-04-25 02:00 6.93675 -73.11285 7467 ft 183 kts 338°
2026-04-25 02:00 6.94857 -73.11748 7282 ft 182 kts 339°
2026-04-25 02:00 6.96035 -73.12210 7088 ft 181 kts 339°
2026-04-25 02:00 6.97210 -73.12665 6870 ft 181 kts 339°
2026-04-25 02:01 6.98370 -73.13102 6619 ft 180 kts 339°
2026-04-25 02:01 6.99540 -73.13541 6393 ft 179 kts 339°
2026-04-25 02:01 7.00702 -73.13977 6163 ft 178 kts 340°
2026-04-25 02:01 7.01857 -73.14409 5929 ft 176 kts 340°
2026-04-25 02:02 7.03001 -73.14839 5705 ft 175 kts 340°
2026-04-25 02:02 7.04123 -73.15262 5507 ft 165 kts 340°
2026-04-25 02:02 7.05156 -73.15651 5283 ft 154 kts 340°
2026-04-25 02:02 7.06147 -73.16023 5077 ft 150 kts 340°
2026-04-25 02:03 7.07122 -73.16385 4863 ft 148 kts 341°
2026-04-25 02:03 7.08090 -73.16733 4658 ft 147 kts 340°
2026-04-25 02:03 7.09044 -73.17087 4488 ft 145 kts 339°
2026-04-25 02:03 7.09983 -73.17453 4287 ft 144 kts 338°
2026-04-25 02:04 7.10917 -73.17824 4089 ft 144 kts 338°
2026-04-25 02:04 7.11855 -73.18177 3898 ft 143 kts 338°
2026-04-25 02:04 7.12656 -73.18479 3905 ft 86 kts 340°
2026-04-25 02:04 7.12958 -73.18593 3911 ft 25 kts 339°
2026-04-25 02:05 7.13118 -73.18654 3911 ft 24 kts 343°
2026-04-25 02:05 7.13198 -73.18631 3911 ft 13 kts 102°
2026-04-25 02:05 7.13153 -73.18567 3911 ft 10 kts 137°
2026-04-25 02:05 7.13092 -73.18538 3911 ft 11 kts 159°
2026-04-25 02:06 7.12982 -73.18497 3911 ft 23 kts 160°
2026-04-25 02:06 7.12807 -73.18430 3908 ft 29 kts 154°
2026-04-25 02:06 7.12700 -73.18259 3904 ft 30 kts 102°
2026-04-25 02:06 7.12714 -73.18164 3905 ft 5 kts 15°
2026-04-25 02:07 7.12734 -73.18159 3903 ft 0 kts 12°